Voltar ao catálogo

STARLINK-35798

AtivoComunicaçõesVLEO
NORAD 66292·PAYLOAD·🇺🇸 United States

Lançado Oct 31, 2025 de Vandenberg Space Force Base

Loading…

Próximas Passagens (próximas 24 horas)

TLE

AtualizadoSource: CelesTrak SupGP

Época: Sep 15, 2026, 03:39 UTC

1 66292C 25247AD  26258.15256944  .00044335  00000+0  13101-2 0  2588
2 66292  53.1601  26.8386 0001144  90.7145 339.9992 15.34363450    11

Acompanhe STARLINK-35798 em tempo real com AllMySat

Download on the App Store